When you browse on this site, cookies collect data to enhance your experience and personalize the content and advertising you see.
Visit our Privacy Policy to learn more. By continuing to use the site, you agree to this use of cookies and data.
  • en Belgique
  • Liste des pays
  • À 7 jours
  • Température de l'eau
  • Carte météo
  • Widgets météo
  • user-avatar
    Se connecter

    Météo par heure à San Fernando de Apure

    Ce jour, 6 Avril, Lundi

    Heure Température Précipitation Vent Pression Humidité
    00:00 +30°C° 0 mm 0 m/s 752 mmHg 57%
    01:00 +32°C° 0 mm 1 m/s 752 mmHg 59%
    02:00 +31°C° 0 mm 1 m/s 752 mmHg 61%
    03:00 +31°C° 0 mm 1 m/s 752 mmHg 64%
    04:00 +31°C° 0 mm 1 m/s 752 mmHg 66%
    05:00 +30°C° 0 mm 1 m/s 752 mmHg 68%
    06:00 +31°C° 0 mm 2 m/s 753 mmHg 66%
    07:00 +31°C° 0 mm 3 m/s 753 mmHg 64%
    08:00 +32°C° 0 mm 4 m/s 754 mmHg 62%
    09:00 +34°C° 0 mm 4 m/s 754 mmHg 57%
    10:00 +35°C° 0 mm 4 m/s 754 mmHg 53%
    11:00 +36°C° 0 mm 4 m/s 755 mmHg 49%
    12:00 +37°C° 0 mm 4 m/s 753 mmHg 46%
    13:00 +38°C° 0 mm 4 m/s 752 mmHg 43%
    14:00 +39°C° 0 mm 3 m/s 751 mmHg 41%
    15:00 +39°C° 0 mm 3 m/s 751 mmHg 41%
    16:00 +39°C° 0 mm 3 m/s 750 mmHg 41%
    17:00 +39°C° 0 mm 3 m/s 750 mmHg 41%
    18:00 +38°C° 0 mm 2 m/s 750 mmHg 44%
    19:00 +36°C° 0 mm 2 m/s 751 mmHg 48%
    20:00 +34°C° 0 mm 1 m/s 751 mmHg 51%
    21:00 +34°C° 0 mm 1 m/s 752 mmHg 52%
    22:00 +33°C° 0 mm 1 m/s 752 mmHg 53%
    23:00 +33°C° 0 mm 1 m/s 753 mmHg 54%

    Demain, 7 Avril, Mardi

    Heure Température Précipitation Vent Pression Humidité
    00:00 +32°C° 0 mm 1 m/s 752 mmHg 56%
    01:00 +32°C° 0 mm 1 m/s 752 mmHg 57%
    02:00 +31°C° 0 mm 2 m/s 752 mmHg 58%
    03:00 +31°C° 0 mm 2 m/s 752 mmHg 59%
    04:00 +30°C° 0 mm 2 m/s 752 mmHg 60%
    05:00 +30°C° 0 mm 2 m/s 752 mmHg 61%
    06:00 +30°C° 0 mm 3 m/s 753 mmHg 61%
    07:00 +32°C° 0 mm 4 m/s 754 mmHg 61%
    08:00 +32°C° 0 mm 4 m/s 754 mmHg 61%
    09:00 +33°C° 0 mm 4 m/s 754 mmHg 57%
    10:00 +35°C° 0 mm 4 m/s 755 mmHg 53%
    11:00 +36°C° 0 mm 4 m/s 755 mmHg 49%
    12:00 +37°C° 0 mm 4 m/s 754 mmHg 46%
    13:00 +38°C° 0 mm 3 m/s 753 mmHg 43%
    14:00 +39°C° 0 mm 3 m/s 751 mmHg 40%
    15:00 +39°C° 0 mm 3 m/s 751 mmHg 41%
    16:00 +38°C° 0 mm 2 m/s 750 mmHg 41%
    17:00 +38°C° 0 mm 2 m/s 750 mmHg 42%
    18:00 +37°C° 0 mm 2 m/s 750 mmHg 44%
    19:00 +35°C° 0 mm 1 m/s 750 mmHg 47%
    20:00 +32°C° 0 mm 0 m/s 750 mmHg 50%
    21:00 +31°C° 0 mm 0 m/s 751 mmHg 51%
    22:00 +33°C° 0 mm 1 m/s 752 mmHg 51%
    23:00 +33°C° 0 mm 1 m/s 752 mmHg 52%

    Après-demain, 8 Avril, Mercredi

    Heure Température Précipitation Vent Pression Humidité
    00:00 +33°C° 0 mm 1 m/s 752 mmHg 53%
    01:00 +32°C° 0 mm 2 m/s 751 mmHg 54%
    02:00 +32°C° 0 mm 2 m/s 751 mmHg 55%
    03:00 +31°C° 0 mm 3 m/s 751 mmHg 57%
    04:00 +31°C° 0 mm 3 m/s 752 mmHg 59%
    05:00 +30°C° 0 mm 3 m/s 752 mmHg 61%
    06:00 +30°C° 0 mm 4 m/s 752 mmHg 61%
    07:00 +32°C° 0 mm 4 m/s 753 mmHg 61%
    08:00 +32°C° 0 mm 5 m/s 753 mmHg 60%
    09:00 +33°C° 0 mm 5 m/s 753 mmHg 56%
    10:00 +35°C° 0 mm 5 m/s 754 mmHg 51%
    11:00 +36°C° 0 mm 4 m/s 754 mmHg 47%
    12:00 +37°C° 0 mm 4 m/s 753 mmHg 44%
    13:00 +38°C° 0 mm 4 m/s 752 mmHg 41%
    14:00 +40°C° 0 mm 4 m/s 751 mmHg 39%
    15:00 +40°C° 0 mm 4 m/s 750 mmHg 39%
    16:00 +40°C° 0 mm 4 m/s 749 mmHg 39%
    17:00 +39°C° 0 mm 3 m/s 749 mmHg 39%
    18:00 +37°C° 0 mm 3 m/s 749 mmHg 42%
    19:00 +36°C° 0 mm 2 m/s 750 mmHg 45%
    20:00 +34°C° 0 mm 1 m/s 750 mmHg 48%
    21:00 +33°C° 0 mm 1 m/s 751 mmHg 49%
    22:00 +33°C° 0 mm 1 m/s 751 mmHg 50%
    23:00 +32°C° 0 mm 1 m/s 752 mmHg 52%

    9 Avril, Jeudi

    Heure Température Précipitation Vent Pression Humidité
    00:00 +32°C° 0 mm 1 m/s 752 mmHg 53%
    01:00 +31°C° 0 mm 2 m/s 751 mmHg 55%
    02:00 +31°C° 0 mm 2 m/s 751 mmHg 56%
    03:00 +31°C° 0 mm 2 m/s 751 mmHg 58%
    04:00 +30°C° 0 mm 2 m/s 751 mmHg 60%
    05:00 +30°C° 0 mm 2 m/s 751 mmHg 62%
    06:00 +30°C° 0 mm 3 m/s 752 mmHg 60%
    07:00 +32°C° 0 mm 4 m/s 752 mmHg 59%
    08:00 +32°C° 0 mm 4 m/s 753 mmHg 58%
    09:00 +33°C° 0 mm 4 m/s 753 mmHg 54%
    10:00 +35°C° 0 mm 4 m/s 753 mmHg 49%
    11:00 +36°C° 0 mm 4 m/s 753 mmHg 45%
    12:00 +38°C° 0 mm 3 m/s 752 mmHg 41%
    13:00 +39°C° 0 mm 3 m/s 751 mmHg 38%
    14:00 +40°C° 0 mm 3 m/s 750 mmHg 34%
    15:00 +40°C° 0 mm 2 m/s 750 mmHg 34%
    16:00 +40°C° 0 mm 2 m/s 749 mmHg 34%
    17:00 +39°C° 0 mm 2 m/s 749 mmHg 35%
    18:00 +38°C° 0 mm 2 m/s 749 mmHg 38%
    19:00 +36°C° 0 mm 1 m/s 750 mmHg 41%
    20:00 +35°C° 0 mm 1 m/s 750 mmHg 44%
    21:00 +34°C° 0 mm 1 m/s 751 mmHg 48%
    22:00 +34°C° 0 mm 2 m/s 752 mmHg 53%
    23:00 +34°C° 0 mm 2 m/s 752 mmHg 57%

    10 Avril, Vendredi

    Heure Température Précipitation Vent Pression Humidité
    00:00 +32°C° 0 mm 2 m/s 752 mmHg 61%
    01:00 +31°C° 0 mm 2 m/s 752 mmHg 65%
    02:00 +31°C° 0 mm 2 m/s 752 mmHg 69%
    03:00 +30°C° 1.1 mm 2 m/s 752 mmHg 73%
    04:00 +29°C° 1.1 mm 1 m/s 752 mmHg 77%
    05:00 +28°C° 1.1 mm 1 m/s 752 mmHg 82%
    06:00 +29°C° 0.5 mm 1 m/s 753 mmHg 77%
    07:00 +30°C° 0.5 mm 1 m/s 753 mmHg 73%
    08:00 +31°C° 0.5 mm 1 m/s 754 mmHg 68%
    09:00 +34°C° 0.1 mm 2 m/s 754 mmHg 61%
    10:00 +35°C° 0.1 mm 2 m/s 754 mmHg 55%
    11:00 +37°C° 0.1 mm 2 m/s 754 mmHg 48%
    12:00 +36°C° 0 mm 1 m/s 753 mmHg 46%
    13:00 +37°C° 0 mm 1 m/s 752 mmHg 43%
    14:00 +39°C° 0 mm 1 m/s 752 mmHg 41%
    15:00 +39°C° 0 mm 1 m/s 751 mmHg 41%
    16:00 +37°C° 0 mm 1 m/s 750 mmHg 40%
    17:00 +37°C° 0 mm 1 m/s 750 mmHg 40%
    18:00 +36°C° 0 mm 1 m/s 750 mmHg 43%
    19:00 +35°C° 0 mm 1 m/s 751 mmHg 46%
    20:00 +31°C° 0 mm 0 m/s 751 mmHg 49%
    21:00 +31°C° 0 mm 0 m/s 752 mmHg 50%
    22:00 +33°C° 0 mm 1 m/s 752 mmHg 51%
    23:00 +32°C° 0 mm 1 m/s 753 mmHg 53%

    11 Avril, Samedi

    Heure Température Précipitation Vent Pression Humidité
    00:00 +32°C° 0 mm 1 m/s 752 mmHg 54%
    01:00 +31°C° 0 mm 1 m/s 752 mmHg 55%
    02:00 +31°C° 0 mm 1 m/s 752 mmHg 56%
    03:00 +30°C° 0 mm 1 m/s 752 mmHg 57%
    04:00 +30°C° 0 mm 1 m/s 753 mmHg 58%
    05:00 +29°C° 0 mm 1 m/s 753 mmHg 59%
    06:00 +30°C° 0 mm 2 m/s 753 mmHg 58%
    07:00 +30°C° 0 mm 3 m/s 754 mmHg 57%
    08:00 +32°C° 0 mm 4 m/s 755 mmHg 56%
    09:00 +33°C° 0 mm 4 m/s 755 mmHg 51%
    10:00 +35°C° 0 mm 4 m/s 755 mmHg 46%
    11:00 +36°C° 0 mm 4 m/s 755 mmHg 41%
    12:00 +38°C° 0 mm 4 m/s 754 mmHg 36%
    13:00 +40°C° 0 mm 4 m/s 753 mmHg 31%
    14:00 +40°C° 0 mm 3 m/s 752 mmHg 26%
    15:00 +40°C° 0 mm 3 m/s 751 mmHg 25%
    16:00 +40°C° 0 mm 3 m/s 750 mmHg 23%
    17:00 +40°C° 0 mm 3 m/s 749 mmHg 22%
    18:00 +38°C° 0 mm 2 m/s 750 mmHg 25%
    19:00 +35°C° 0 mm 1 m/s 750 mmHg 28%
    20:00 +33°C° 0 mm 1 m/s 751 mmHg 31%
    21:00 +33°C° 0 mm 1 m/s 751 mmHg 32%
    22:00 +32°C° 0 mm 1 m/s 752 mmHg 34%
    23:00 +31°C° 0 mm 1 m/s 753 mmHg 36%
    Voir plus